Regional Weather Roundup
Issued by NWS San Angelo, TX

Home | Current Version | Previous Version | Text Only | Print | Product List | Glossary On
Versions: 1 2 3 4 5 6 7 8 9 10 11 12 13 14 15 16 17 18 19 20 21 22 23 24 25 26 27 28 29 30 31 32 33 34 35 36 37 38 39 40 41 42 43 44 45 46 47 48 49 50
000
ASUS44 KSJT 232211
RWRSJT
WEST CENTRAL TEXAS REGIONAL WEATHER ROUNDUP
NATIONAL WEATHER SERVICE SAN ANGELO TX
500 PM CDT TUE AUG 23 2016

NOTE: "FAIR" INDICATES FEW OR NO CLOUDS BELOW 12,000 FEET WITH NO
SIGNIFICANT WEATHER AND/OR OBSTRUCTIONS TO VISIBILITY.

TXZ049-054-064>066-071>073-076>078-098-099-113-114-127-128-139-140-
154-155-168>170-232300
...LOCATIONS ACROSS WEST CENTRAL TEXAS...

CITY           SKY/WX    TMP DP  RH WIND       PRES   REMARKS
SAN ANGELO     SUNNY     95  57  27 S16G24    30.03F
ABILENE        SUNNY     93  62  35 S16G24    30.03F
DYESS AFB      SUNNY     94  63  35 S14G26    30.01F
JUNCTION       SUNNY     92  61  35 S17G28    30.07F
SWEETWATER     SUNNY     93  61  34 SE15G26   30.06F
BROWNWOOD      SUNNY     91  63  38 S14G20    30.04F
COLEMAN        CLEAR     94  58  30 S14G20    30.05F
SONORA         SUNNY     91  61  35 S15G23    30.11F
OZONA          FAIR      91  59  33 S18G25    30.09F
BRADY          NOT AVBL
$$

TEXAS PANHANDLE/OKLAHOMA PANHANDLE

CITY           SKY/WX    TMP DP  RH WIND       PRES   REMARKS
AMARILLO       MOSUNNY   92  55  28 SW16      29.99F
BORGER         SUNNY     95  57  27 S14G26    29.93F
CANADIAN       CLOUDY    79  65  60 S22G41    29.91R
DALHART        SUNNY     95  40  14 SW15G28   29.98F
DUMAS          CLEAR     93  46  20 SW18G28   29.97F
GUYMON         NOT AVBL
HEREFORD       CLEAR     97  47  18 SW13G37   30.01F
PAMPA          CLEAR     97  54  23 W17       29.97S
PERRYTON       SUNNY     97  49  19 SW17G25   29.90F
$$

SOUTHERN PANHANDLE/SOUTH PLAINS/ROLLING PLAINS

CITY           SKY/WX    TMP DP  RH WIND       PRES   REMARKS
LUBBOCK        CLOUDY    89  62  40 S20G25    30.03S THUNDER
SNYDER           N/A     90  67  46 S13       30.04F
CHILDRESS      SUNNY     93  70  46 S17G29    29.96F
SEMINOLE       CLOUDY    87  61  41 S17G24    30.07S
$$

PERMIAN BASIN

CITY           SKY/WX    TMP DP  RH WIND       PRES   REMARKS
MIDLAND        CLOUDY    89  63  41 S13       30.05F
ODESSA         MOSUNNY   89  63  41 S20       30.07F
WINK           CLOUDY    90  60  36 S15G28    30.02F
$$

FAR WEST/SOUTHWEST MOUNTAINS/TRANS PECOS

CITY           SKY/WX    TMP DP  RH WIND       PRES   REMARKS
ALPINE         MOCLDY    80  63  55 W9        30.21F
DRYDEN           N/A     91  69  48 SE10G21   30.02F
EL PASO        PTSUNNY   88  59  37 NE6       30.05F
FORT STOCKTON  MOSUNNY   91  62  37 S14G24    30.04F
GUADALUPE PASS CLOUDY    80  60  50 SW24G30   30.19F
MARFA          LGT RAIN N/A N/A N/A SW5       30.21F
PECOS          CLOUDY    91  63  39 S14G22    30.02S THUNDER
$$

DALLAS/FORT WORTH METROPLEX

CITY           SKY/WX    TMP DP  RH WIND       PRES   REMARKS
DFW AIRPORT    MOSUNNY   93  69  45 S21G28    30.03F
FTW MEACHAM    SUNNY     95  67  39 S16       30.02F
DAL-EXECUTIVE  SUNNY     92  70  48 S15G24    30.04F
GRAND PRAIRIE  SUNNY     93  68  43 S14G25    30.05F
ADDISON        MOSUNNY   91  68  46 S15G28    30.05F
MESQUITE       PTCLDY    91  72  52 SE12      30.06F
LANCASTER      PTCLDY    93  70  46 S13G20    30.06F
$$

NORTH CENTRAL TEXAS

CITY           SKY/WX    TMP DP  RH WIND       PRES   REMARKS
SHRMAN/DENISON PTCLDY    94  71  48 S20       30.05S
GAINESVILLE      N/A     89  71  55 S16G22    30.05S
BRIDGEPORT     PTCLDY    92  70  47 S12G18    30.04F
DENTON         SUNNY     92  71  50 S18G25    30.03F
WAXAHACHIE     PTCLDY    92  71  51 S15       30.06F
GRANBURY       CLEAR     96  65  35 S15G24    30.04F
$$

WESTERN NORTH TEXAS

CITY           SKY/WX    TMP DP  RH WIND       PRES   REMARKS
WICHITA FALLS  PTSUNNY   94  67  41 S16G28    29.97F
VERNON         CLOUDY    92  62  36 S16       29.97F
BRECKENRIDGE   CLEAR     94  63  34 S13       30.01F
COMANCHE       SUNNY     94  63  36 S16G23    30.06F
$$

CENTRAL AND SOUTH CENTRAL TEXAS

CITY           SKY/WX    TMP DP  RH WIND       PRES   REMARKS
AUSTIN/BERGSTM MOSUNNY   93  71  48 S13       30.07F
WACO           SUNNY     94  70  45 S17       30.05F
HILLSBORO      PTCLDY    92  69  46 S16G22    30.06F
TEMPLE         SUNNY     92  70  48 SE18      30.07F
KILLEEN-GRAY   MOSUNNY   91  69  47 S21       30.06F
FORT HOOD      MOSUNNY   92  69  45 S16       30.05S
GEORGETOWN     MOSUNNY   93  68  43 S12G21    30.07F
LAGO VISTA     FAIR      91  66  42 S9G21     30.11S
SAN MARCOS     MOSUNNY   91  72  52 S16       30.09F
NEW BRAUNFELS  SUNNY     93  70  46 S15G22    30.06F
RANDOLPH AFB   MOSUNNY   92  72  51 S15       30.07F
SAN ANTONIO    MOSUNNY   90  68  48 S16       30.08F
STINSON        MOSUNNY   93  70  46 S12       30.06F
PLEASANTON     NOT AVBL
LA GRANGE      MOSUNNY   94  74  52 S10       30.06F
GIDDINGS       PTCLDY    91  70  49 S9        30.12S
$$

EAST TEXAS

CITY           SKY/WX    TMP DP  RH WIND       PRES   REMARKS
PARIS          MOSUNNY   90  72  55 S16G23    30.09S
CLARKSVILLE    NOT AVBL
TYLER          MOSUNNY   92  71  50 S12       30.10F
LONGVIEW       MOSUNNY   91  73  55 SW8       30.10F
PALESTINE      CLEAR     91  73  56 S9        30.11S
NACOGDOCHES    PTSUNNY  N/A N/A N/A S7        30.09S THUNDER
$$

TEXAS HILL COUNTRY AND EDWARDS PLATEAU

CITY           SKY/WX    TMP DP  RH WIND       PRES   REMARKS
LLANO          CLEAR     93  72  49 S17G23    30.09S
HORSESHOE BAY  FAIR      92  66  42 S10G18    30.08F
KERRVILLE      MOSUNNY   89  70  53 S18G24    30.11F
FREDERICKSBRG  SUNNY     88  62  41 S17G25    30.10F
ROCKSPRINGS    CLEAR     88  66  48 S21G26    30.13F
HONDO          MOSUNNY   93  71  48 S13G21    30.07F
UVALDE         CLEAR     92  67  44 SE14G21   30.05F
DEL RIO        SUNNY     92  67  43 SE17G25   30.00F
$$

SOUTHEAST TEXAS

CITY           SKY/WX    TMP DP  RH WIND       PRES   REMARKS
COLLEGE STN    MOSUNNY   92  74  55 SE13      30.08F
CALDWELL       PTCLDY    91  66  43 S10       30.10F HAZE
CROCKETT       PTCLDY    91 N/A N/A S9        30.12F
BRENHAM        MOSUNNY   94  75  54 S10G16    30.09F
HUNTSVILLE     SUNNY     93  68  43 VRB6      30.10F
CONROE         HVY RAIN  81  76  84 E8G37     30.11R VSB 1/2
HOUSTON BUSH   CLOUDY    86  78  77 E10       30.09F
HOUSTON HOBBY  CLOUDY    88  77  69 S10       30.09F
PERLAND        MOSUNNY   92  76  59 S12       30.11F
WHARTON        CLEAR     90  74  59 S10       30.10F
$$

THE UPPER TEXAS COAST

CITY           SKY/WX    TMP DP  RH WIND       PRES   REMARKS
ORANGE         CLEAR     90  70  51 S10       30.13F
PORT ARTHUR    SUNNY     91  76  61 S8        30.11F
GALVESTON      MOSUNNY   89  78  70 S13       30.12F
ANGLETON       MOSUNNY   91  74  57 S13       30.11S
BAY CITY       PTCLDY    91  75  61 S10       30.11S
$$

TEXAS COASTAL BEND, RIO GRANDE PLAINS DEEP SOUTH TEXAS

CITY           SKY/WX    TMP DP  RH WIND       PRES   REMARKS
VICTORIA       SUNNY     91  72  53 S16       30.08F
BEEVILLE       FAIR      93  75  55 SE16G22   30.06F
ROCKPORT       SUNNY     90  75  61 SE12      30.08S
PORT ARANSAS   CLEAR     88  78  73 SE12      30.08S
PORT LAVACA    PTCLDY    90  78  69 S10       30.09F
CORPUS CHRISTI MOSUNNY   94  71  47 SE18G25   30.06S
KINGSVILLE NAS MOSUNNY   92  72  51 SE16      30.05S
COTULLA        SUNNY     97  63  32 S10       30.02F
LAREDO         SUNNY     97  67  37 SE20G26   30.01F
BROWNSVILLE    SUNNY     93  73  52 SE17      30.06F
PORT ISABEL    SUNNY     92  74  55 SE17G26   30.05F
HEBBRONVILLE   PTCLDY    97  63  32 SE16      30.05S
MCALLEN        SUNNY    100  64  30 SE20      30.03F
WESLACO        MOSUNNY  N/A N/A N/A SE17      30.03S
FALFURRIAS     CLEAR     96  69  41 SE15G22   30.03S
EDINBURG       CLEAR     99  59  26 SE15G24   30.04S
$$



USA.gov is the U.S. government's official web portal to all federal, state and local government web resources and services.